Weather History for Key West NAF, FL

Change the Weather History Date:

Friday, April 5, 2013

  Actual Average Record
Temperature  
Mean Temperature 72 °F -  
Max Temperature 77 °F 80 °F 86 °F (1949)
Min Temperature 66 °F 71 °F 61 °F (1951)
Cooling Degree Days 6    
Growing Degree Days 22 (Base 50)    
Moisture  
Dew Point 66 °F    
Average Humidity 85    
Maximum Humidity 94    
Minimum Humidity 78    
Precipitation  
Precipitation 1.27 in - - ()
Sea Level Pressure  
Sea Level Pressure 29.92 in    
Wind  
Wind Speed 11 mph (North)    
Max Wind Speed 20 mph    
Max Gust Speed 29 mph    
Visibility 8 miles    
Events Rain , Thunderstorm    
Averages and records for this station are not official NWS values.
T = Trace of Precipitation, MM = Missing Value Source: NWS Daily Summary

Daily Weather History Graph

Daily Weather History Graph

Search for Another Location

Airport:

Trip Planner

Search our weather history database for the weather conditions in past years. The results will help you decide how hot, cold, wet, or windy it might be!

Date:

Astronomy

Apr. 05, 2013 Rise Set
Actual Time 7:14 AM EDT 7:44 PM EDT
Civil Twilight 6:51 AM EDT 8:07 PM EDT
Nautical Twilight 6:24 AM EDT 8:34 PM EDT
Astronomical Twilight 5:57 AM EDT 9:01 PM EDT
Moon 3:51 AM EDT (4/5) 3:34 PM EDT (4/5)
Length of Visible Light 13h 16m
Length of Day
12h 30m
Waning Crescent, 24% of the Moon is Illuminated
Apr 5
Waning Crescent
Apr 10
New
Apr 18
First Quarter
Apr 25
Full
May 2
Last Quarter

Hourly Weather History & Observations

Time (EDT) Temp. Dew Point Humidity Pressure Visibility Wind Dir Wind Speed Gust Speed Precip Events Conditions
12:53 AM 77.0 °F 73.0 °F 88% 29.96 in 10.0 mi SE 9.2 mph - N/A Thunderstorm Thunderstorm
1:53 AM 72.0 °F 68.0 °F 87% 29.94 in 10.0 mi ESE 13.8 mph - N/A Thunderstorm Thunderstorm
2:53 AM 73.9 °F 70.0 °F 87% 29.94 in 10.0 mi ESE 8.1 mph - N/A Thunderstorm Thunderstorm
3:21 AM 71.6 °F 64.4 °F 78% 29.98 in 10.0 mi NE 9.2 mph 24.2 mph N/A   Overcast
3:39 AM 69.8 °F 64.4 °F 83% 29.99 in 8.0 mi North 15.0 mph 25.3 mph 0.06 in Rain , Thunderstorm Light Thunderstorms and Rain
3:53 AM 69.1 °F 64.9 °F 87% 29.97 in 10.0 mi North 18.4 mph 28.8 mph 0.06 in   Overcast
4:31 AM 69.8 °F 66.2 °F 88% 29.96 in 10.0 mi NNE 17.3 mph - N/A   Overcast
4:53 AM 69.1 °F 66.0 °F 90% 29.95 in 10.0 mi NNE 16.1 mph 23.0 mph N/A   Overcast
5:53 AM 71.1 °F 66.0 °F 84% 29.95 in 10.0 mi NE 10.4 mph - N/A   Overcast
6:07 AM 71.6 °F 66.2 °F 83% 29.95 in 10.0 mi NE 11.5 mph - N/A   Mostly Cloudy
6:53 AM 72.0 °F 66.9 °F 84% 29.95 in 10.0 mi ENE 9.2 mph - N/A   Mostly Cloudy
7:49 AM 71.6 °F 66.2 °F 83% 29.95 in 10.0 mi East 12.7 mph - N/A   Mostly Cloudy
7:53 AM 72.0 °F 66.0 °F 81% 29.95 in 10.0 mi ENE 10.4 mph - N/A   Mostly Cloudy
8:53 AM 73.0 °F 66.9 °F 81% 29.97 in 10.0 mi East 8.1 mph - N/A Thunderstorm Thunderstorm
9:23 AM 73.4 °F 66.2 °F 78% 29.99 in 7.0 mi Calm Calm - 0.00 in Rain , Thunderstorm Light Thunderstorms and Rain
9:55 AM 68.0 °F 64.4 °F 88% 29.99 in 3.0 mi NW 12.7 mph 27.6 mph 0.02 in Rain , Thunderstorm Light Thunderstorms and Rain
10:31 AM 68.0 °F 64.4 °F 88% 29.97 in 8.0 mi East 6.9 mph - 0.10 in Rain Light Rain
10:53 AM 69.1 °F 64.9 °F 87% 29.96 in 10.0 mi ESE 10.4 mph - 0.11 in Rain Light Rain
11:53 AM 70.0 °F 64.4 °F 82% 29.93 in 10.0 mi SSE 11.5 mph - 0.02 in Rain Light Rain
12:19 PM 71.6 °F 66.2 °F 83% 29.93 in 10.0 mi SSE 13.8 mph - 0.01 in   Overcast
12:53 PM 72.0 °F 69.1 °F 91% 29.91 in 10.0 mi SSE 13.8 mph - 0.01 in   Overcast
1:53 PM 73.0 °F 68.0 °F 84% 29.88 in 10.0 mi SSE 12.7 mph - N/A   Overcast
2:32 PM 73.4 °F 69.8 °F 88% 29.89 in 7.0 mi Calm Calm - 0.00 in Rain Light Rain
2:53 PM 73.0 °F 70.0 °F 90% 29.87 in 6.0 mi South 4.6 mph - 0.03 in Rain Light Rain
3:47 PM 75.2 °F 68.0 °F 78% 29.87 in 10.0 mi Calm Calm - 0.02 in   Overcast
3:53 PM 73.9 °F 69.1 °F 85% 29.87 in 10.0 mi NNW 4.6 mph - 0.02 in   Overcast
4:14 PM 73.4 °F 68.0 °F 83% 29.83 in 5.0 mi North 17.3 mph 23.0 mph 0.01 in Rain Light Rain
4:20 PM 71.6 °F 68.0 °F 88% 29.84 in 2.0 mi North 17.3 mph 26.5 mph 0.05 in Rain Heavy Rain
4:24 PM 71.6 °F 69.8 °F 94% 29.85 in 4.0 mi North 15.0 mph 26.5 mph 0.07 in Rain Light Rain
4:33 PM 71.6 °F 69.8 °F 94% 29.86 in 0.5 mi NNW 18.4 mph 25.3 mph 0.13 in Rain Heavy Rain
4:47 PM 69.8 °F 66.2 °F 88% 29.86 in 1.0 mi NNW 13.8 mph 24.2 mph 0.36 in Rain , Thunderstorm Thunderstorms and Rain
4:53 PM 66.9 °F 64.9 °F 93% 29.87 in 0.5 mi WNW 9.2 mph - 0.54 in Rain , Thunderstorm Heavy Thunderstorms and Rain
4:55 PM 66.2 °F 64.4 °F 94% 29.87 in 0.2 mi NW 6.9 mph - 0.12 in Rain , Thunderstorm Heavy Thunderstorms and Rain
5:06 PM 66.2 °F 64.4 °F 94% 29.85 in 1.0 mi NNW 4.6 mph - 0.44 in Rain , Thunderstorm Thunderstorms and Rain
5:18 PM 66.2 °F 64.4 °F 94% 29.86 in 7.0 mi SW 10.4 mph - 0.48 in Rain , Thunderstorm Light Thunderstorms and Rain
5:25 PM 66.2 °F 62.6 °F 88% 29.85 in 10.0 mi West 5.8 mph - 0.48 in   Mostly Cloudy
5:53 PM 71.1 °F 64.0 °F 78% 29.86 in 10.0 mi SW 6.9 mph - 0.48 in   Mostly Cloudy
6:53 PM 71.1 °F 66.9 °F 87% 29.86 in 10.0 mi NNW 6.9 mph - N/A   Mostly Cloudy
7:09 PM 71.6 °F 66.2 °F 83% 29.87 in 10.0 mi NW 8.1 mph - N/A   Mostly Cloudy
7:44 PM 69.8 °F 66.2 °F 88% 29.89 in 10.0 mi NNW 13.8 mph - N/A   Overcast
7:53 PM 70.0 °F 66.9 °F 90% 29.90 in 10.0 mi NNW 11.5 mph - N/A   Overcast
8:53 PM 69.1 °F 64.0 °F 84% 29.94 in 10.0 mi North 15.0 mph - N/A   Overcast
9:10 PM 69.8 °F 64.4 °F 83% 29.95 in 10.0 mi North 15.0 mph - N/A   Mostly Cloudy
9:48 PM 69.8 °F 62.6 °F 78% 29.97 in 10.0 mi NNW 15.0 mph 26.5 mph N/A   Mostly Cloudy
9:53 PM 69.1 °F 63.0 °F 81% 29.97 in 10.0 mi NNW 16.1 mph 24.2 mph N/A   Mostly Cloudy
10:02 PM 69.8 °F 62.6 °F 78% 29.97 in 10.0 mi NNW 15.0 mph 23.0 mph N/A   Mostly Cloudy
10:41 PM 68.0 °F 60.8 °F 78% 29.99 in 8.0 mi NNW 19.6 mph 24.2 mph N/A   Mostly Cloudy
10:53 PM 68.0 °F 61.0 °F 78% 29.99 in 10.0 mi NNW 13.8 mph - N/A   Mostly Cloudy
11:53 PM 68.0 °F 61.0 °F 78% 29.99 in 10.0 mi NNW 17.3 mph - N/A   Mostly Cloudy